This demonstration page uses our WeatherBlox Daily Observations layout. Learn more.

Left ArrowRight Arrow

40.97296, -117.73568

Hourly Observations for August 24, 2016

Temp ( °F °C ) Dew Point ( °F °C ) Humidity (%) Winds ( mph kmh ) Pressure ( in mb ) Visibility ( mi km ) Precip ( " mm )
12:56 am 00:56 Clear 58 14.4 17 -8.3 20 20 W 7 11 30.03 1017 10 16 0.00 0.00
1:56 am 01:56 Clear 51 10.6 15 -9.4 24 24 WNW 8 13 30.04 1017 10 16 0.00 0.00
2:56 am 02:56 Clear 54 12.2 16 -8.9 22 22 WNW 5 7 30.04 1017 10 16 0.00 0.00
3:56 am 03:56 Clear 48 8.9 19 -7.2 32 32 Calm 30.06 1018 10 16 0.00 0.00
4:56 am 04:56 Clear 42 5.6 18 -7.8 38 38 SE 8 13 30.09 1019 10 16 0.00 0.00
5:56 am 05:56 Clear 39 3.9 18 -7.8 43 43 SSE 6 9 30.10 1019 10 16 0.00 0.00
6:56 am 06:56 Sunny 44 6.7 17 -8.3 34 34 SE 6 9 30.11 1020 10 16 0.00 0.00
7:56 am 07:56 Sunny 55 12.8 20 -6.7 25 25 Calm 30.11 1020 10 16 0.00 0.00
8:56 am 08:56 Sunny 65 18.3 17 -8.3 16 16 Calm 30.10 1019 10 16 0.00 0.00
9:56 am 09:56 Sunny 72 22.2 18 -7.8 13 13 ENE 5 7 30.09 1019 10 16 0.00 0.00
10:56 am 10:56 Sunny 78 25.6 18 -7.8 10 10 Calm 30.06 1018 10 16 0.00 0.00
11:56 am 11:56 Sunny 80 26.7 16 -8.9 9 9 Calm 30.04 1017 10 16 0.00 0.00
12:56 pm 12:56 Sunny 84 28.9 16 -8.9 8 8 VRB 6 9 30.03 1017 10 16 0.00 0.00
1:56 pm 13:56 Sunny 84 28.9 17 -8.3 8 8 WSW 6 9 30.02 1017 10 16 0.00 0.00
2:56 pm 14:56 Sunny 86 30 17 -8.3 8 8 NW 9 15 29.99 1016 10 16 0.00 0.00
3:56 pm 15:56 Sunny 86 30 16 -8.9 7 7 WSW 9 15 29.98 1015 10 16 0.00 0.00
4:56 pm 16:56 Sunny 86 30 15 -9.4 7 7 W 15 24 29.97 1015 10 16 0.00 0.00
5:56 pm 17:56 Sunny 85 29.4 15 -9.4 7 7 WNW 7 11 29.97 1015 10 16 0.00 0.00
6:56 pm 18:56 Sunny 82 27.8 17 -8.3 9 9 N 8 13 29.96 1015 10 16 0.00 0.00
7:56 pm 19:56 Clear 74 23.3 19 -7.2 12 12 NNE 6 9 29.96 1015 10 16 0.00 0.00
8:56 pm 20:56 Clear 69 20.6 17 -8.3 14 14 NNE 13 20 29.98 1015 10 16 0.00 0.00
9:56 pm 21:56 Clear 70 21.1 22 -5.6 16 16 NNE 15 24 29.97 1015 10 16 0.00 0.00
10:56 pm 22:56 Clear 67 19.4 22 -5.6 18 18 NE 14 22 29.97 1015 10 16 0.00 0.00
11:56 pm 23:56 Clear 66 18.9 23 -5 19 19 NE 15 24 29.98 1015 10 16 0.00 0.00

Powered by AerisWeather